Location: Columbia
(38.9520°N, 92.3340°W)
Time: 12:37:05
(UTC-05:00)

Cosmos 1633 - Visible Passes

Search period start: 23 April 2018 00:00
Search period end: 03 May 2018 00:00
Orbit: 468 x 487 km, 82.5° (Epoch: 23 April)

Date Brightness Start Highest point End Pass type
(mag) Time Alt. Az. Time Alt. Az. Time Alt. Az.
23 Apr 5.2 22:20:46 10° NNE 22:21:11 12° NNE 22:21:11 12° NNE visible
24 Apr 5.7 23:28:24 10° NNW 23:28:53 13° NW 23:28:53 13° NW visible
25 Apr 5.1 23:01:10 10° NNW 23:02:22 20° NNW 23:02:22 20° NNW visible
26 Apr 4.4 22:34:10 10° N 22:35:52 26° N 22:35:52 26° N visible
27 Apr 4.0 22:07:23 10° N 22:09:23 27° NNE 22:09:23 27° NNE visible
28 Apr 4.2 21:40:51 10° NNE 21:42:55 21° NE 21:42:55 21° NE visible
28 Apr 5.4 23:16:02 10° NW 23:17:10 15° WNW 23:17:10 15° WNW visible
29 Apr 4.6 21:14:50 10° NE 21:16:28 13° ENE 21:16:28 13° ENE visible
29 Apr 4.6 22:48:27 10° NNW 22:50:43 26° WNW 22:50:43 26° WNW visible
30 Apr 3.2 22:21:13 10° NNW 22:24:17 52° WNW 22:24:17 52° WNW visible
01 May 2.3 21:54:12 10° N 21:57:47 75° E 21:57:53 74° ESE visible
02 May 3.1 21:27:24 10° N 21:30:46 39° E 21:31:31 34° ESE visible
